#timestamp,LO_Frequency,Hit,StdDev 
1592643615.7,286046997.9,N
1592643635.6,286046996.9,N
1592643655.4,286046998.7,N
1592643675.2,286046998.8,N
1592643695.1,286047001.2,N
1592643696.0,286047001.2,N
1592643715.8,286047000.6,N
1592643735.7,286046999.1,N
1592643755.5,286046997.8,N
1592643775.3,286046995.7,N
1592643795.2,286046996.6,N
1592643815.0,286046996.6,N
1592643815.9,286046996.6,N
1592643835.8,286046998.4,N
1592643855.6,286046998.2,N
1592643875.4,286046998.9,N
1592643895.3,286046999.4,N
1592643915.1,286046998.4,N
1592643935.8,286046998.8,N
1592643955.7,286046996.9,N
1592643975.5,286046999.1,N
1592643995.4,286046997.1,N
1592644015.2,286046997.7,N
1592644035.0,286046999.4,N
1592644035.9,286046999.4,N
1592644055.8,286047000.7,N
1592644075.6,286047001.0,N
1592644095.4,286047000.8,N
1592644115.3,286046998.6,N
1592644135.1,286047001.1,N
1592644155.9,286046998.2,N
1592644175.7,286047000.4,N
1592644195.5,286046999.7,N
1592644215.4,286047002.8,N
1592644235.2,286047000.7,N
1592644255.0,286047000.6,N
1592644255.9,286047000.6,N
1592644275.8,286046999.9,N
1592644295.6,286047000.9,N
1592644315.5,286047002.1,N
1592644335.3,286046999.8,N
1592644355.1,286047000.7,N
1592644375.9,286047000.4,N
1592644395.7,286047000.7,N
1592644415.5,286047002.7,N
1592644435.4,286046999.8,N
1592644455.2,286047002.6,N
1592644475.1,286047002.6,N
1592644476.0,286047002.6,N
1592644495.8,286047002.4,N
1592644515.6,286047002.7,N
1592644535.5,286047002.7,N
1592644555.3,286046998.6,N
1592644575.2,286046998.1,N
1592644595.9,286047001.1,N
1592644615.7,286046998.8,N
1592644635.6,286046999.0,N
1592644655.4,286046999.3,N
1592644675.2,286046998.5,N
1592644695.1,286046998.3,N
1592644696.0,286046998.3,N
1592644715.8,286047000.4,N
1592644735.7,286047001.1,N
1592644755.5,286047000.0,N
1592644775.3,286047000.7,N
1592644795.2,286047000.8,N
1592644815.0,286046998.5,N
1592644815.9,286046998.5,N
1592644835.8,286047000.0,N
1592644855.6,286047002.3,N
1592644875.4,286047000.0,N
1592644895.3,286047002.3,N
1592644915.1,286047002.6,N
1592644935.9,286047000.9,N
1592644955.7,286047001.0,N
1592644975.5,286047000.4,N
1592644995.4,286046998.1,N
1592645015.2,286046998.7,N
1592645035.0,286047000.6,N
1592645035.9,286047000.6,N
1592645055.8,286046999.6,N
1592645075.6,286046996.9,N
1592645095.5,286046996.8,N
1592645115.3,286046997.4,N
1592645135.1,286046997.1,N
1592645155.9,286046997.6,N
1592645175.7,286046996.5,N
1592645195.5,286046995.4,N
1592645215.4,286046993.8,Y
1592645235.2,286046995.9,P
1592645255.1,286046996.4,N
1592645256.0,286046996.4,N
1592645275.8,286046993.4,Y
1592645295.6,286046998.3,P
1592645315.5,286047000.6,N
1592645335.3,286046998.8,N
1592645355.1,286046999.4,N
1592645375.9,286046998.4,N
1592645395.7,286046996.6,Y
1592645415.6,286046998.1,P
1592645435.4,286046998.9,P
1592645455.2,286046998.3,P
1592645475.1,286046998.5,Y
1592645476.0,286046998.5,P
1592645495.8,286047002.0,P
1592645515.7,286047002.5,N
1592645535.5,286047001.4,N
1592645555.3,286047001.3,N
1592645575.2,286047004.2,N
1592645595.9,286047003.1,N
1592645615.7,286047001.9,N
1592645635.6,286047003.6,N
1592645655.4,286047003.7,N
1592645675.2,286047001.9,N
1592645695.1,286047003.5,N
1592645696.0,286047003.5,N
1592645715.8,286047002.5,N
1592645735.7,286047000.2,N
1592645755.5,286047001.5,N
1592645775.3,286046998.4,N
1592645795.2,286046999.4,N
1592645815.0,286046999.1,N
1592645815.9,286046999.1,N
1592645835.7,286046996.5,N
1592645855.6,286046997.8,N
1592645875.4,286046998.0,N
1592645895.3,286046996.1,N
1592645915.1,286047011.9,Y
1592645935.8,286046993.4,P
1592645955.7,286046993.3,N
1592645975.5,286046996.2,N
1592645995.4,286046997.1,N
1592646015.2,286046995.5,N
1592646035.0,286046996.9,N
1592646035.9,286046996.9,N
1592646055.8,286046998.8,N
1592646075.6,286047001.1,N
1592646095.4,286047002.3,N
1592646115.3,286047002.5,N
1592646135.1,286047002.6,N
1592646155.8,286047001.3,N
1592646175.7,286047003.5,N
1592646195.5,286047003.1,N
1592646215.4,286047003.8,N
1592646235.2,286047005.3,N
1592646255.0,286047005.4,N
1592646255.9,286047005.4,N
1592646275.8,286047004.7,N
1592646295.6,286047006.5,N
1592646315.4,286047006.2,N
1592646335.3,286047008.5,N
1592646355.1,286047006.1,N
1592646375.9,286047009.0,N
1592646395.7,286047008.7,N
1592646415.5,286047008.3,N
1592646435.4,286047008.3,N
1592646455.2,286047009.0,N
1592646475.0,286047007.8,N
1592646475.9,286047007.8,N
1592646495.8,286047008.6,N
1592646515.6,286047007.8,N
1592646535.5,286047010.8,N
1592646555.3,286047008.1,N
1592646575.1,286047008.9,N
1592646595.9,286047009.1,N
1592646615.7,286047007.8,N
1592646635.6,286047008.2,Y
1592646655.4,286047001.7,P
1592646675.2,286047001.5,N
1592646695.1,286047003.3,N
1592646696.0,286047003.3,N
1592646715.8,286047003.6,N
1592646735.6,286047003.6,N
1592646755.5,286047001.4,N
1592646775.3,286047003.7,N
1592646795.2,286047003.6,N
1592646815.9,286047002.2,N
1592646835.7,286046999.8,N
1592646855.6,286047004.4,N
1592646875.4,286047003.7,N
1592646895.3,286047005.2,Y
1592646915.1,286047001.8,P
1592646916.0,286047001.8,N
1592646935.8,286047004.1,P
1592646955.7,286047003.4,Y
1592646975.5,286047000.3,P
1592646995.4,286047000.7,N
1592647015.2,286047000.8,N
1592647035.0,286047002.8,Y
1592647035.9,286047002.8,P
1592647055.8,286047002.5,N
1592647075.6,286047002.4,P
1592647095.4,286047002.3,Y
1592647115.3,286046998.3,P
1592647135.1,286047000.0,N
1592647155.9,286047000.9,N
1592647175.7,286047002.4,N
1592647195.5,286047002.0,N
